{"data":{"norad_id":59570,"intl_designator":"2024-076G","name":"STARLINK-31587","alt_names":[],"object_type":"PAYLOAD","status":"ACTIVE","operator":null,"country":"US","launch_date":"2024-04-23","launch_site_code":"AFETR","launch_vehicle":null,"mission":null,"orbit_class":"UNKNOWN","rcs_meters":null,"size_class":null,"mass_kg":null,"dimensions":null,"purposes":["comms"],"wikipedia_slug":null,"has_3d_model":false,"image_url":null,"decayed_at":null,"tle_current":{"epoch":"2026-09-21T06:42:17.779680Z","epoch_age_seconds":100903,"freshness":"FRESH","line1":"1 59570U 24076G   26264.27937245  .00000168  00000+0  15623-4 0  9999","line2":"2 59570  43.0032 344.5795 0001264 254.5245 105.5467 15.27580181136430","mean_motion":15.27580181,"eccentricity":0.0001264,"inclination_deg":43.0032,"raan_deg":344.5795,"arg_perigee_deg":254.5245,"mean_anomaly_deg":105.5467,"bstar":1.5623e-5,"rev_number":13643,"period_min":94.266737544168,"perigee_km":482.18130020656,"apogee_km":483.91580791463,"semimajor_km":6861.1855540606,"source":"CELESTRAK","updated_at":"2026-09-22T09:00:49.001611Z"}}}